Regional Weather Roundup
Issued by NWS

Home | Current Version | Previous Version | Text Only | Print | Product List | Glossary On
Versions: 1 2 3 4 5 6 7 8 9 10 11 12 13 14 15 16 17 18 19 20 21 22 23 24 25 26 27 28 29 30 31 32 33 34 35 36 37 38 39 40 41 42 43 44 45 46 47 48 49 50
159
ASUS43 KMKX 221321
RWRWI

WISCONSIN REGIONAL WEATHER ROUNDUP
NATIONAL WEATHER SERVICE MILWAUKEE/SULLIVAN WI
800 AM CDT FRI MAY 22 2015

NOTE: "FAIR" INDICATES FEW OR NO CLOUDS BELOW 12,000 FEET WITH NO
SIGNIFICANT WEATHER AND/OR OBSTRUCTIONS TO VISIBILITY.

WIZ001-002-006>008-014>016-023>028-221400-
NORTHWEST WISCONSIN

CITY           SKY/WX    TMP DP  RH WIND       PRES   REMARKS
SUPERIOR ARPT  SUNNY     47  35  64 NE6       30.22R
ASHLAND        SUNNY     48  35  60 CALM      30.21R
HAYWARD        SUNNY     47  36  65 CALM      30.21R
SIREN          SUNNY     50  40  69 CALM      30.21R
CUMBERLAND     SUNNY     50  36  57 CALM      30.21R
RICE LAKE      SUNNY     49  40  71 N3        30.22R
CHETEK         SUNNY     49  41  74 CALM      30.21R
LADYSMITH      SUNNY     49  39  68 CALM      30.22R
EAU CLAIRE     SUNNY     52  39  61 NE6       30.19R
MENOMONIE      SUNNY     51  38  62 NW5       30.20R
NEW RICHMOND   SUNNY     51  39  62 CALM      30.20R
OSCEOLA        SUNNY     48  45  88 CALM      30.23R
$$

WIZ003>005-009-010-017-018-221400-
NORTH CENTRAL WISCONSIN

CITY           SKY/WX    TMP DP  RH WIND       PRES   REMARKS
MANITOWISH WTR SUNNY     45  32  62 CALM      30.20R
ARBOR VITAE    SUNNY     47  36  67 CALM      30.20R
WOODRUFF       SUNNY     47  36  67 CALM      30.20R
RHINELANDER    SUNNY     48  31  51 SW6       30.20R
EAGLE RIVER    SUNNY     47  26  43 S3        30.20R
LAND O LAKES   SUNNY     47  23  38 SW5       30.20S
PHILLIPS       SUNNY     45  38  77 CALM      30.20R
TOMAHAWK       SUNNY     45  36  72 SW3       30.21R
MEDFORD        SUNNY     48  37  65 S7        30.20R
MERRILL        SUNNY     44  38  79 CALM      30.22R
$$

WIZ029-030-035-036-043>047-221400-
CENTRAL WISCONSIN

CITY           SKY/WX    TMP DP  RH WIND       PRES   REMARKS
WAUSAU         SUNNY     49  32  52 S8        30.20R
MOSINEE        SUNNY     46  34  61 VRB5      30.22R
MARSHFIELD     SUNNY     50  36  58 E6        30.21R
STEVENS POINT  SUNNY     49  32  52 CALM      30.22R
WAUPACA        SUNNY     52  32  47 CALM      30.22R
WAUTOMA        SUNNY     51  35  54 CALM      30.22R
WISC RAPIDS    SUNNY     51  31  46 SE3       30.22R
CAMP DOUGLAS   SUNNY     48  43  81 SE5       30.20R
$$

WIZ011>013-019>022-031-037>040-048>050-221400-
NORTHEAST WISCONSIN

CITY           SKY/WX    TMP DP  RH WIND       PRES   REMARKS
ANTIGO         SUNNY     45  34  66 CALM      30.21R
SHAWANO        SUNNY     49  35  58 CALM      30.22R
OCONTO         MOSUNNY   47  28  46 CALM      30.21R
STURGEON BAY   SUNNY     48  28  46 NW7       30.24R
GREEN BAY      SUNNY     51  31  46 N5        30.22R
MANITOWOC      SUNNY     50  34  54 N6        30.22R
APPLETON       SUNNY     48  28  46 CALM      30.21R
CLINTONVILLE   SUNNY     46  36  66 CALM      30.22R
OSHKOSH        SUNNY     52  30  43 E6        30.21R
$$

WIZ032>034-041-042-053>061-221400-
SOUTHWEST WISCONSIN

CITY           SKY/WX    TMP DP  RH WIND       PRES   REMARKS
LA CROSSE      SUNNY     52  43  71 SE3       30.19R
SPARTA         SUNNY     48  40  73 CALM      30.20R
VIROQUA        SUNNY     52  40  64 SE9       30.20R
BOSCOBEL       SUNNY     50  44  80 NE5       30.21R
PRAIRIE DU CHI SUNNY     49  43  81 CALM      30.19R
PLATTEVILLE    SUNNY     53  40  62 E7        30.19R
$$

WIZ056-057-062-063-064-067-068-221400-
SOUTH CENTRAL WISCONSIN

CITY           SKY/WX    TMP DP  RH WIND       PRES   REMARKS
REEDSBURG      SUNNY     49  36  61 CALM      30.20R
BARABOO/DELLS  SUNNY     50  33  53 E5        30.21R
LONE ROCK      SUNNY     50  42  74 CALM      30.21R
MINERAL POINT  SUNNY     54  34  47 E6        30.20R
MADISON        SUNNY     51  35  54 CALM      30.20R
MIDDLETON      SUNNY     53  30  41 E3        30.21R
WATERTOWN      SUNNY     51  33  50 E3        30.20R
MONROE         SUNNY     52  36  54 NE6       30.19R
JANESVILLE     SUNNY     54  34  47 NE8       30.18R
$$

WIZ051-052-058>065-066-070>072-221400-
SOUTHEAST WISCONSIN

CITY           SKY/WX    TMP DP  RH WIND       PRES   REMARKS
MILWAUKEE      SUNNY     50  35  56 NE8       30.20R
WAUKESHA       SUNNY     50  32  50 E5        30.20R
MILWAUKEE/TIMM SUNNY     50  28  43 NE5       30.21R
RACINE         SUNNY     51  36  56 N8        30.21R
BURLINGTON     SUNNY     51  31  46 E5        30.19R
KENOSHA        SUNNY     53  39  59 E6        30.19R
FOND DU LAC    SUNNY     51  31  46 NE5       30.21R
SHEBOYGAN      SUNNY     50  32  50 NE7       30.21R
WEST BEND      SUNNY     50  32  50 E3        30.21R
JUNEAU         SUNNY     50  32  49 E3        30.22R
$$

LSZ147-162-221400-
LAKE SUPERIOR

STATION/POSITION TIME  TEMP    WIND        PRES    WAVE
                       AIR SEA DIR/SP/G            HT/PER
                 (UTC) (F)     (DEG/KT/KT) (MB)    (FT/S)
W MID LAKE BUOY  1250   37 36   60/  8/  8   N/A     0
DEVILS ISLAND    1300   41     350/  2/  3   N/A
PORT WING        1200   43      CALM  /  2   N/A
SAXON HARBOR     1200   40        CALM       N/A
$$

LMZ867-665-643>646-221400-
LAKE MICHIGAN

STATION/POSITION TIME  TEMP    WIND        PRES    WAVE
                       AIR SEA DIR/SP/G            HT/PER
                 (UTC) (F)     (DEG/KT/KT) (MB)    (FT/S)
CHAMBERS ISLAND  1200   47     340/  7/  8   N/A
N MID LAKE BUOY  1250   38 36  350/  6/  6   N/A     1
NORTHPORT PIER   1200   45     360/  8/ 18   N/A
SISTER BAY       1217   48     360/ 11/ 12   N/A
KEWAUNEE LAKESHO 1200          310/  1/  3   N/A
SHEBOYGAN LAKESH 1300          360/  7/  7   N/A
PORT WASHINGTON  1200   51     360/  2/  4   N/A
ATWATER BUOY     1300   46 44   20/ 10/ 12   N/A
MILWAUKEE LAKESH 1300   47      30/ 11/ 13   N/A
S MID LAKE BUOY  1250   41 38  360/ 10/ 10   N/A     1/ 4
KENOSHA   LAKESH 1300   48      10/  8/ 11   N/A
$$

TC  - TEMPERATURE IN CELSIUS
VSB - VISIBILITY IN STATUTE MILES
WCI - WIND CHILL INDEX
HX  - HEAT INDEX




USA.gov is the U.S. government's official web portal to all federal, state and local government web resources and services.